Lid_Strength_Index
9 12 13 13 11 9 7 6 6 7 6 6 6 3 3 2 1 1 0 0 -0 -1 -1 -1 -1 -1 -1 -1 -2 -2 -2 -2
11 12 10 11 9 8 7 7 5 6 7 6 3 3 2 1 1 1 1 -0 -0 -1 -1 -1 -1 -1 -1 -1 -2 -2 -2 -2
12 11 9 7 7 8 8 7 6 6 7 6 4 2 1 1 1 1 1 0 -0 -1 -1 -1 -1 -1 -1 -1 -1 -2 -2 -2
13 11 8 7 8 8 7 7 6 7 7 6 4 2 2 1 1 1 1 0 0 -1 -1 -1 -1 -1 -1 -1 -1 -1 -1 -2
12 11 9 7 7 8 8 7 6 6 7 7 5 3 1 1 1 1 0 0 0 0 -0 -1 -1 -1 -1 -1 -1 -1 -1 -1
12 11 10 7 7 7 8 7 5 4 7 8 5 4 2 2 2 2 1 1 1 0 0 0 -0 -1 -1 -1 -1 -1 -1 -1
12 11 10 8 8 6 6 6 6 5 5 4 4 4 4 6 5 3 1 1 1 0 0 0 0 -0 -1 -1 -1 -1 -1 -1
9 9 10 8 9 8 8 7 7 6 4 4 3 4 5 6 4 4 2 2 1 1 1 0 0 0 0 0 0 -0 -0 0
8 8 7 7 8 7 8 9 7 7 6 5 5 5 5 4 5 4 3 2 1 1 0 1 0 0 0 0 0 0 0 0
7 6 6 7 6 8 8 8 6 5 5 5 5 6 6 5 5 6 5 2 1 1 1 1 0 0 0 0 0 0 0 0
6 6 6 6 7 7 7 6 4 4 5 6 6 6 6 6 5 6 7 5 1 1 1 1 1 1 0 1 0 0 0 0
9 9 8 7 7 7 6 4 5 5 6 6 7 6 6 6 6 6 6 6 2 1 1 1 1 1 1 0 0 0 0 0
11 10 10 8 9 9 7 5 6 6 6 6 7 6 7 6 6 6 5 5 4 1 1 1 1 1 1 1 1 1 0 0
11 10 9 9 12 8 6 6 6 6 6 7 7 6 5 5 5 5 5 5 5 1 1 1 1 1 1 1 1 1 1 0
12 10 9 9 12 8 7 7 7 7 7 6 6 6 5 4 4 5 5 5 5 3 2 1 1 2 2 1 1 1 1 1
13 10 8 9 10 8 7 7 7 7 7 6 7 6 4 4 4 5 5 5 4 4 2 2 3 3 2 2 2 2 2 1
11 9 9 9 10 9 7 7 7 7 7 7 6 5 4 5 4 5 5 5 4 3 2 2 2 2 3 3 3 4 2 1
12 10 11 11 11 9 8 8 8 7 7 7 6 5 5 5 6 5 4 3 3 2 2 2 2 3 4 4 5 4 3 2
14 11 11 12 13 12 10 9 8 7 7 7 7 7 6 6 6 5 4 3 3 3 3 3 3 4 5 5 5 5 5 4
12 14 16 12 18 13 12 11 10 9 8 8 8 7 7 6 6 4 3 3 3 3 3 3 3 4 4 5 6 6 5 4